[[{"header":{"parameterUnit":"m.s-1","parameterCategory":1,"la1":30.2991,"la2":30.254,"lo1":-89.0895,"lo2":-89.0444,"dy":0.0017,"dx":0.0017,"nx":28,"ny":28,"refTime":"2024-08-08T09:00:00:Z","depth":0,"parameterNumber":2,"parameterNumberName":"U-component_of_WINDS"},"data":[0,0,0,0,0,0,0,0,0,0,0,0,0,0,0,0,0,0,0,0,0,0,0,0,0,0,0,0,0,0,0,0,0,0,0,0,0,0,0,0,0,0,0,0,0,0,0,0,0,0,0,0,0,0,0,0,0,0,3.5581,3.5582,0,3.567,3.5671,3.5672,3.5612,3.5609,3.5606,3.5604,3.5698,3.5703,3.5708,0,0,0,0,0,0,0,0,0,0,0,0,0,3.536,3.5364,3.558,3.5582,3.5583,3.567,3.5671,3.5673,3.5612,3.5609,3.5606,3.5603,3.5696,3.5702,3.5708,0,0,0,0,0,0,0,0,0,0,0,0,0,3.5453,3.5365,3.558,3.5563,3.5562,3.567,3.5671,3.5673,3.5613,3.5609,3.5605,3.5601,3.5694,3.5702,3.5709,3.5839,0,0,3.5733,3.5736,0,0,0,0,0,0,0,0,3.5448,3.5461,3.5565,3.5565,3.5564,3.5626,3.5628,3.5729,3.5614,3.5594,3.5604,3.5599,3.5677,3.5686,3.5712,3.5844,3.5848,3.5733,3.5738,3.5741,3.5743,0,0,0,0,0,0,0,3.5441,3.5457,3.5616,3.5566,3.5566,3.5552,3.5561,3.5647,3.5658,3.5595,3.5591,3.5603,3.5676,3.5705,3.5714,3.5849,3.5733,3.574,3.5745,3.5748,3.6093,3.6097,0,0,0,0,0,0,3.5436,3.5452,3.5613,3.5619,3.5494,3.5559,3.5569,3.561,3.5657,3.566,3.5606,3.5599,3.5694,3.5705,3.5717,3.5873,3.5741,3.5748,3.5753,3.6088,3.6094,3.6099,0,0,0,0,0,0,3.5432,3.5451,3.561,3.5534,3.5553,3.5567,3.5614,3.5614,3.5642,3.5665,3.5667,3.5633,3.5691,3.5706,3.5809,3.5875,3.5752,3.5759,3.6083,3.609,3.6096,3.6186,0,0,0,0,0,0,3.5426,3.545,3.5499,3.5536,3.5558,3.57,3.5618,3.5619,3.5655,3.5648,3.5691,3.5694,3.5689,3.5798,3.5817,3.5884,3.5765,3.6077,3.6086,3.6094,3.6177,3.6195,3.621,0,0,0,0,0,3.5418,3.5521,3.5501,3.5521,3.5619,3.5704,3.5716,3.5708,3.5661,3.5711,3.5725,3.5692,3.5865,3.5809,3.583,3.59,3.6073,3.6083,3.6093,3.6169,3.6191,3.621,0,0,0,0,0,0,3.5492,3.5525,3.5504,3.5622,3.566,3.5693,3.5756,3.5731,3.5785,3.5775,3.5764,3.5774,3.5882,3.5901,3.5839,3.6029,3.5961,3.5976,3.6012,3.6033,3.605,3.6043,3.5771,0,0,0,0,0,3.5521,3.5587,3.5613,3.5714,3.5734,3.5742,3.5779,3.5769,3.5809,3.5825,3.5847,3.5887,3.5951,3.5993,3.6052,3.6179,3.6188,3.6237,3.6254,3.6267,3.6281,3.6351,3.6373,3.6133,3.6133,3.6132,0,0,3.5584,3.561,3.5652,3.573,3.5758,3.5827,3.5756,3.5832,3.5883,3.5837,3.5935,3.5953,3.5998,3.6113,3.6165,3.6132,3.6349,3.6281,3.6291,3.6297,3.6364,3.6386,3.6407,3.614,3.6138,3.6137,0,0,3.5733,3.5759,3.5847,3.5877,3.5921,3.5926,3.5947,3.5984,3.5994,3.6092,3.6059,3.612,3.6229,3.6263,3.6294,3.6457,3.6429,3.6477,3.6564,3.6632,3.6651,3.6667,3.6727,3.6748,3.649,3.649,3.649,0,3.5806,3.5907,3.5895,3.5974,3.6009,3.597,3.6059,3.6089,3.6151,3.6177,3.6139,3.6276,3.6303,3.6426,3.6466,3.6492,3.6517,3.6472,3.6649,3.6665,3.6681,3.6737,3.6759,3.6495,3.6495,3.6494,3.6494,0,3.5995,3.6066,3.6132,3.6192,3.6234,3.6318,3.632,3.6365,3.6352,3.636,3.6462,3.6493,3.6559,3.6587,3.6575,3.671,3.6688,3.665,3.6582,3.671,3.6762,3.6784,3.6503,3.6501,3.65,3.6498,0,0,3.6194,3.6246,3.6271,3.6298,3.6344,3.6399,3.6481,3.6544,3.6584,3.6628,3.6697,3.6791,3.6756,3.6791,3.6783,3.6842,3.6971,3.6797,3.6798,3.6829,3.7122,3.7152,3.7177,3.6952,3.6956,3.6959,3.7119,0,3.6347,3.6489,3.6481,3.6615,3.6682,3.6645,3.6717,3.6753,3.6764,3.6822,3.6834,3.6901,3.6849,3.687,3.6928,3.6943,3.703,3.6931,3.7018,3.7021,3.7009,3.7204,3.7235,3.7385,3.7139,3.7143,3.7145,0,3.6544,3.6594,3.6735,3.6772,3.6799,3.6864,3.6922,3.6977,3.7019,3.7022,3.7062,3.7044,3.7128,3.7058,3.7175,3.7108,3.7143,3.7156,3.7162,3.717,3.7092,3.722,3.7432,3.7455,3.7178,3.7175,3.7173,0,3.6677,3.678,3.6877,3.6901,3.6946,3.6993,3.7014,3.705,3.7089,3.714,3.7166,3.7226,3.7259,3.7307,3.7306,3.7255,3.7425,3.7354,3.7432,3.7432,3.747,3.7468,3.7692,3.7491,3.749,3.749,3.749,0,3.6849,3.6937,3.6937,3.6998,3.7096,3.7086,3.7183,3.7199,3.7232,3.7296,3.7268,3.7328,3.7323,3.7384,3.7384,3.7482,3.7497,3.7503,3.7502,3.7506,3.7506,3.753,3.752,3.7496,3.7495,3.7493,3.7492,0,3.7014,3.7018,3.7122,3.7156,3.7166,3.7237,3.7266,3.7324,3.7332,3.7413,3.7431,3.7444,3.7515,3.7519,3.7601,3.76,3.772,3.7707,3.7706,3.7704,3.7781,3.7775,3.803,3.8064,3.7839,3.7841,3.7843,0,3.7125,3.7191,3.7232,3.7272,3.7296,3.7361,3.74,3.7393,3.7436,3.7488,3.754,3.7608,3.7662,3.7777,3.7795,3.7857,3.7847,3.7932,3.7856,3.7858,3.785,3.7846,3.7853,3.7947,3.7949,3.7951,3.7953,0,3.7321,3.7319,3.7376,3.7435,3.7483,3.7529,3.7571,3.7606,3.7604,3.7654,3.7725,3.7767,3.7851,3.7919,3.7981,3.8003,3.7979,3.7977,3.7998,3.8004,3.8001,3.8005,3.7748,3.7971,3.7969,3.7968,3.7967,3.7966,3.7463,3.7521,3.7558,3.7624,3.7655,3.7695,3.7751,3.7766,3.7826,3.7892,3.7885,3.7965,3.8005,3.8085,3.8112,3.8176,3.8147,3.8177,3.8185,3.8194,3.8202,3.799,3.8187,3.8186,3.8186,3.8185,3.8185,0,3.7659,3.7681,3.7741,3.7801,3.7853,3.7824,3.7869,3.7915,3.7986,3.8025,3.8078,3.8161,3.8228,3.825,3.8315,3.8362,3.8352,3.8379,3.8376,3.8382,3.8224,3.8199,3.8386,3.8386,3.8386,3.8386,3.8386,3.8386,3.7767,3.7863,3.7866,3.7979,3.8,3.8078,3.8107,3.8145,3.8176,3.827,3.8324,3.8338,3.8371,3.8438,3.8498,3.8503,3.8529,3.8561,3.8562,3.8414,3.8393,3.8374,3.8351,3.8566,3.8567,3.8715,3.8716,3.8717]},{"header":{"parameterUnit":"m.s-1","parameterCategory":1,"la1":30.2991,"la2":30.254,"lo1":-89.0895,"lo2":-89.0444,"dy":0.0017,"dx":0.0017,"nx":28,"ny":28,"refTime":"2024-08-08T09:00:00:Z","depth":0,"parameterNumber":3,"parameterNumberName":"V-component_of_WINDS"},"data":[0,0,0,0,0,0,0,0,0,0,0,0,0,0,0,0,0,0,0,0,0,0,0,0,0,0,0,0,0,0,0,0,0,0,0,0,0,0,0,0,0,0,0,0,0,0,0,0,0,0,0,0,0,0,0,0,0,0,-2.237,-2.2372,0,-2.2482,-2.2483,-2.2485,-2.2495,-2.2494,-2.2493,-2.2492,-2.2605,-2.2609,-2.2613,0,0,0,0,0,0,0,0,0,0,0,0,0,-2.2165,-2.2169,-2.237,-2.2372,-2.2373,-2.2482,-2.2484,-2.2485,-2.2495,-2.2494,-2.2492,-2.2491,-2.2604,-2.2609,-2.2614,0,0,0,0,0,0,0,0,0,0,0,0,0,-2.2263,-2.217,-2.237,-2.2391,-2.2394,-2.2482,-2.2484,-2.2485,-2.2496,-2.2494,-2.2492,-2.249,-2.2602,-2.2608,-2.2615,-2.2688,0,0,-2.2633,-2.2636,0,0,0,0,0,0,0,0,-2.2258,-2.2271,-2.2387,-2.239,-2.2394,-2.2473,-2.2453,-2.2553,-2.2496,-2.2457,-2.2492,-2.249,-2.2563,-2.2572,-2.2597,-2.2693,-2.2698,-2.2634,-2.2638,-2.264,-2.2642,0,0,0,0,0,0,0,-2.2251,-2.2266,-2.2415,-2.2388,-2.2393,-2.2395,-2.2407,-2.2472,-2.2518,-2.246,-2.2461,-2.2475,-2.2564,-2.2591,-2.26,-2.27,-2.2634,-2.2639,-2.2643,-2.2646,-2.2863,-2.2865,0,0,0,0,0,0,-2.224,-2.226,-2.2411,-2.2418,-2.232,-2.24,-2.2414,-2.2449,-2.2518,-2.2527,-2.2476,-2.2475,-2.2581,-2.2592,-2.2604,-2.2695,-2.264,-2.2646,-2.265,-2.2861,-2.2863,-2.2865,0,0,0,0,0,0,-2.2236,-2.2254,-2.2406,-2.234,-2.2359,-2.2406,-2.2445,-2.2452,-2.2479,-2.253,-2.2538,-2.2495,-2.258,-2.2595,-2.2667,-2.2699,-2.2649,-2.2655,-2.2858,-2.2861,-2.2864,-2.2876,0,0,0,0,0,0,-2.223,-2.2252,-2.228,-2.234,-2.2363,-2.2468,-2.2447,-2.2456,-2.249,-2.2489,-2.2549,-2.2558,-2.258,-2.2658,-2.2673,-2.2706,-2.2659,-2.2856,-2.286,-2.2863,-2.2873,-2.288,-2.2885,0,0,0,0,0,-2.2223,-2.2279,-2.2282,-2.23,-2.2399,-2.247,-2.2483,-2.2508,-2.2492,-2.2521,-2.2554,-2.2556,-2.2693,-2.2665,-2.2683,-2.2718,-2.2854,-2.2858,-2.2863,-2.2871,-2.2878,-2.2885,0,0,0,0,0,0,-2.2222,-2.2287,-2.2291,-2.2369,-2.2414,-2.2472,-2.2509,-2.2515,-2.2565,-2.2562,-2.2591,-2.2604,-2.2675,-2.2704,-2.2672,-2.2793,-2.2772,-2.278,-2.2772,-2.2779,-2.2785,-2.2776,-2.2664,0,0,0,0,0,-2.223,-2.2283,-2.2337,-2.24,-2.2423,-2.2462,-2.2494,-2.2509,-2.2557,-2.2576,-2.2614,-2.266,-2.2713,-2.2748,-2.28,-2.2878,-2.2891,-2.2911,-2.2916,-2.2921,-2.2927,-2.2971,-2.2981,-2.2881,-2.2881,-2.288,0,0,-2.2249,-2.2292,-2.2323,-2.2401,-2.2438,-2.2491,-2.2478,-2.2535,-2.2575,-2.2584,-2.2655,-2.2684,-2.2738,-2.2813,-2.2848,-2.2839,-2.2958,-2.2927,-2.293,-2.2934,-2.2977,-2.2986,-2.2995,-2.2884,-2.2883,-2.2883,0,0,-2.2311,-2.2348,-2.2405,-2.2442,-2.2498,-2.2524,-2.2537,-2.2595,-2.2615,-2.2686,-2.2695,-2.2742,-2.2834,-2.2872,-2.2903,-2.2979,-2.2983,-2.2995,-2.3025,-2.3067,-2.3075,-2.3082,-2.3109,-2.3119,-2.3002,-2.3002,-2.3002,0,-2.2327,-2.2408,-2.2433,-2.249,-2.2525,-2.2536,-2.2594,-2.2629,-2.2699,-2.2722,-2.2711,-2.2826,-2.2863,-2.2948,-2.2966,-2.2991,-2.3008,-2.2988,-2.3072,-2.3079,-2.3086,-2.3113,-2.3123,-2.3003,-2.3003,-2.3003,-2.3003,0,-2.2425,-2.2481,-2.252,-2.2588,-2.2627,-2.2684,-2.2718,-2.2754,-2.2766,-2.2793,-2.2866,-2.291,-2.2972,-2.2993,-2.3005,-2.3079,-2.3072,-2.3066,-2.3045,-2.3096,-2.3122,-2.3132,-2.3005,-2.3004,-2.3004,-2.3004,0,0,-2.2489,-2.257,-2.2584,-2.2615,-2.2678,-2.2722,-2.2779,-2.284,-2.287,-2.2918,-2.2967,-2.3044,-2.304,-2.3075,-2.3091,-2.3128,-2.3186,-2.3118,-2.312,-2.3129,-2.3271,-2.3276,-2.3287,-2.3189,-2.3191,-2.3193,-2.3267,0,-2.2558,-2.2661,-2.2686,-2.2774,-2.2826,-2.2838,-2.2888,-2.2932,-2.2959,-2.3007,-2.3036,-2.3091,-2.308,-2.3102,-2.3139,-2.3171,-2.3215,-2.3166,-2.3235,-2.3237,-2.3221,-2.33,-2.3305,-2.3373,-2.3277,-2.3279,-2.328,0,-2.2652,-2.2702,-2.2795,-2.2852,-2.2874,-2.2919,-2.2977,-2.3022,-2.3072,-2.3089,-2.3129,-2.3142,-2.3202,-2.3179,-2.3262,-2.3229,-2.3258,-2.3279,-2.3282,-2.3289,-2.3262,-2.331,-2.3395,-2.3405,-2.3296,-2.3295,-2.3293,0,-2.2689,-2.278,-2.2848,-2.2874,-2.2941,-2.2972,-2.3002,-2.305,-2.3085,-2.3135,-2.3158,-2.3215,-2.3246,-2.3289,-2.3317,-2.3297,-2.3398,-2.3377,-2.3414,-2.3413,-2.3435,-2.3433,-2.3526,-2.3454,-2.3454,-2.3453,-2.3453,0,-2.2763,-2.282,-2.2866,-2.2907,-2.2971,-2.2999,-2.3062,-2.3092,-2.3135,-2.3182,-2.3196,-2.324,-2.3275,-2.3324,-2.3346,-2.3412,-2.3426,-2.3441,-2.3446,-2.344,-2.3438,-2.346,-2.3456,-2.3456,-2.3456,-2.3455,-2.3455,0,-2.2816,-2.2849,-2.2924,-2.2981,-2.2997,-2.3042,-2.3091,-2.3132,-2.3159,-2.3219,-2.3235,-2.3278,-2.3336,-2.3369,-2.3442,-2.3457,-2.3531,-2.3533,-2.3514,-2.3516,-2.3552,-2.3548,-2.3662,-2.3678,-2.3595,-2.3596,-2.3596,0,-2.2861,-2.2905,-2.2968,-2.3001,-2.3031,-2.3084,-2.3119,-2.3149,-2.3185,-2.3246,-2.328,-2.3339,-2.3388,-2.3481,-2.3519,-2.3575,-2.3579,-2.3615,-2.3588,-2.358,-2.358,-2.3577,-2.3582,-2.362,-2.3621,-2.3621,-2.3622,0,-2.2938,-2.2952,-2.3003,-2.306,-2.3102,-2.3148,-2.3194,-2.322,-2.3257,-2.3298,-2.3358,-2.3396,-2.3471,-2.353,-2.359,-2.362,-2.3627,-2.363,-2.3642,-2.3636,-2.3623,-2.3631,-2.3527,-2.3627,-2.3627,-2.3627,-2.3626,-2.3626,-2.2989,-2.3028,-2.3079,-2.3135,-2.3173,-2.3215,-2.3256,-2.3289,-2.334,-2.3403,-2.3418,-2.3481,-2.3531,-2.3611,-2.3643,-2.3693,-2.3686,-2.3703,-2.3707,-2.3711,-2.3712,-2.3615,-2.3704,-2.3704,-2.3704,-2.3704,-2.3704,0,-2.3067,-2.3099,-2.3151,-2.3215,-2.3259,-2.3262,-2.3313,-2.335,-2.3406,-2.3451,-2.3499,-2.3569,-2.3626,-2.3668,-2.3727,-2.3759,-2.3764,-2.3773,-2.3771,-2.3778,-2.3715,-2.3699,-2.3768,-2.3768,-2.3768,-2.3768,-2.3768,-2.3768,-2.3112,-2.318,-2.32,-2.3286,-2.3319,-2.3381,-2.341,-2.3449,-2.3486,-2.3563,-2.3611,-2.3638,-2.3682,-2.3744,-2.3797,-2.3808,-2.3828,-2.3838,-2.3849,-2.3789,-2.3782,-2.3776,-2.3761,-2.3842,-2.3842,-2.3908,-2.3908,-2.3909]}]]